Theta_e
318 319 329 337 335 340 342 344 340 345 345 343 344 347 347 346 344 341 334 336 339 342 341 340 339 338 337 336 337 337 336 336 334 333 330 326 322 317 315 315 316 318 320 322 323 323 323 321 323
316 320 331 335 336 341 343 340 342 342 343 345 345 345 344 345 339 337 337 337 339 339 340 340 340 339 339 338 337 336 337 334 332 330 327 323 318 315 315 317 318 320 323 323 324 323 323 323 323
316 321 328 331 333 340 343 341 341 339 340 343 344 345 347 343 342 342 340 339 339 341 340 340 340 338 337 336 335 333 333 330 330 328 326 321 316 315 316 318 320 323 324 324 324 324 324 323 322
326 326 334 333 338 339 340 339 339 337 341 343 342 346 347 343 341 340 339 339 339 340 340 339 338 337 335 334 334 332 330 328 328 327 324 319 315 315 316 317 320 323 324 324 324 324 324 323 323
328 331 332 336 337 338 338 337 336 342 341 344 345 346 344 344 341 341 341 339 337 335 336 335 335 335 334 334 332 328 328 328 327 325 322 317 315 316 316 317 319 322 323 323 323 324 325 324 322
324 329 332 336 336 335 335 335 336 341 343 343 345 344 343 341 342 341 340 338 336 336 334 333 332 331 332 331 329 327 327 327 324 321 317 315 315 316 316 316 318 319 320 322 322 323 324 325 323
319 326 332 333 338 338 337 337 338 337 338 341 344 345 340 342 342 343 341 341 340 339 339 337 335 332 333 331 330 327 323 319 316 315 316 317 317 318 318 318 319 320 320 321 322 322 323 325 324
324 329 334 335 337 335 335 338 338 341 342 339 343 344 340 336 344 343 343 341 340 339 336 335 336 335 334 332 329 323 318 316 316 317 319 325 320 320 319 319 320 320 321 322 323 324 324 324 325
322 328 334 338 338 339 337 341 343 341 339 338 339 339 337 338 341 341 342 340 338 338 336 336 336 336 335 334 331 323 318 315 316 316 318 319 320 321 320 320 321 322 322 324 327 326 326 325 325
323 328 334 336 337 337 338 342 340 342 339 338 336 336 337 337 337 337 336 336 335 335 335 336 337 337 336 335 332 331 323 319 323 324 323 319 319 321 323 325 327 326 328 329 329 328 326 326 326
340 335 337 337 336 337 337 339 341 339 337 337 336 335 335 335 334 334 334 333 334 334 334 334 334 334 333 333 332 329 328 328 327 327 327 328 329 330 329 328 330 329 330 330 329 328 328 327 327
341 341 339 339 337 338 339 338 337 336 336 335 335 334 334 333 332 332 330 330 330 330 331 331 331 332 332 330 330 328 326 324 326 326 326 328 328 329 328 328 328 329 330 330 329 328 329 327 327
339 341 338 338 337 338 338 336 334 334 334 334 334 334 333 332 331 330 328 327 325 324 323 322 323 323 324 326 326 325 323 318 319 319 318 319 321 321 320 321 322 323 326 328 327 326 325 326 326
338 340 338 338 337 338 337 336 334 333 334 333 333 332 332 330 329 327 325 325 321 318 316 315 314 314 313 314 317 317 317 316 317 318 320 319 317 316 315 313 315 318 320 321 322 324 324 325 326
340 339 338 337 337 336 335 337 334 333 332 331 330 330 329 327 325 324 322 320 320 319 318 318 317 316 314 313 315 315 312 311 314 316 318 320 317 313 313 312 311 314 313 315 316 317 317 321 322
331 335 340 338 337 336 334 341 334 332 331 330 329 329 327 326 325 322 320 319 319 319 319 319 318 316 315 314 314 314 312 312 311 314 317 320 316 314 313 312 312 311 311 311 311 316 318 317 317
327 328 335 334 331 332 333 339 332 330 330 329 327 326 326 325 322 321 321 321 321 321 320 319 317 316 315 315 314 311 310 310 310 317 318 317 315 315 314 312 311 310 310 310 311 313 315 315 317
321 332 332 333 334 334 336 335 330 329 331 328 327 325 325 323 322 322 322 322 322 321 321 318 317 316 315 315 312 310 309 309 310 312 313 313 313 314 312 311 310 310 309 309 310 312 313 313 314
329 333 335 329 330 330 330 330 330 328 330 328 326 325 324 323 324 323 323 323 323 322 320 317 317 316 314 312 310 309 309 309 310 312 312 312 311 311 311 311 310 310 310 311 311 311 311 312 313
331 333 333 331 327 328 328 332 331 331 330 329 327 326 325 326 326 326 325 324 322 322 318 318 317 314 312 311 310 310 310 308 308 309 311 311 311 312 312 312 311 310 310 311 310 311 312 312 313
327 328 332 334 332 329 333 334 333 331 331 330 328 325 326 326 325 325 322 320 319 319 317 316 314 313 311 311 310 308 308 308 308 309 309 310 311 311 311 311 311 310 310 311 310 311 311 311 313
325 328 331 332 332 336 330 338 332 329 331 331 330 328 327 325 324 321 319 319 318 317 316 314 314 312 311 309 308 307 307 306 306 306 306 306 308 309 310 310 310 309 309 310 310 311 312 312 312
326 329 331 330 332 330 332 335 334 329 332 332 328 328 327 324 322 320 319 317 317 318 317 313 312 309 308 307 307 306 306 305 305 305 305 305 305 306 307 309 308 309 310 311 311 311 312 312 313
323 321 318 319 325 330 330 329 329 332 330 331 327 325 324 322 321 321 319 314 313 313 312 310 308 308 307 307 307 306 304 304 305 305 304 304 304 306 307 308 309 311 311 310 309 311 312 312 313
321 319 321 323 331 334 329 329 326 327 329 328 325 325 323 322 321 319 317 314 313 311 309 308 307 306 307 306 306 305 304 304 304 304 303 303 304 308 308 309 310 310 310 309 308 309 309 312 312
322 321 322 327 329 333 328 333 329 328 328 326 325 323 321 320 318 315 314 312 311 308 307 307 306 307 308 307 306 306 305 305 304 304 305 306 307 308 309 309 309 309 308 310 311 311 311 312 312
324 323 320 323 327 330 331 332 331 327 325 323 323 321 319 316 314 313 311 310 308 307 307 307 308 308 307 307 306 306 305 306 305 305 305 306 307 307 308 308 308 308 309 310 310 310 312 313 313
323 322 322 322 329 333 330 328 331 329 326 321 321 318 314 313 312 311 310 309 307 307 306 307 308 307 308 308 307 307 306 306 305 305 305 307 307 307 307 308 307 309 309 310 311 311 311 311 313
322 321 321 321 323 328 329 327 321 325 324 321 320 318 314 312 311 310 309 307 307 307 307 307 308 308 308 308 308 307 306 305 305 305 305 305 306 306 307 307 307 308 309 309 310 310 310 311 311
321 323 319 322 327 323 323 324 319 322 324 323 318 317 313 311 310 309 307 307 307 307 308 308 308 308 308 308 308 308 307 307 306 306 305 304 305 306 306 306 306 305 307 308 308 308 308 308 309
Wind_Speed
3 4 2 4 5 5 3 1 2 8 6 19 15 9 6 12 3 5 12 18 13 11 10 9 8 7 7 6 6 6 6 5 5 6 8 9 11 13 15 17 17 17 16 16 16 15 13 12 10
3 3 5 5 5 4 2 4 3 3 6 11 21 12 13 7 14 15 14 15 13 11 9 9 7 7 6 5 4 4 4 2 4 5 7 9 12 13 15 16 16 15 15 15 16 16 15 12 9
3 4 1 4 3 5 4 4 2 7 8 5 3 7 4 6 13 11 18 16 14 12 9 8 6 6 5 4 3 2 1 2 3 5 8 10 12 13 14 14 14 14 14 14 14 14 14 13 11
4 4 7 5 5 2 4 3 6 6 4 6 10 7 9 12 12 17 19 16 10 10 8 7 5 4 4 3 2 2 1 1 2 4 6 8 10 12 13 12 11 11 11 10 9 10 11 11 11
2 5 5 4 3 3 3 7 8 7 4 13 8 10 12 17 18 16 17 14 10 10 8 6 5 4 4 4 3 2 3 2 3 4 5 7 9 10 10 10 9 8 6 5 5 6 8 8 8
3 4 5 3 2 4 5 5 4 7 17 11 11 8 10 13 17 16 15 15 13 11 10 8 6 5 4 3 4 4 4 3 3 3 5 6 6 7 7 6 5 4 3 3 2 1 2 5 8
5 4 4 4 1 2 3 6 6 8 10 12 3 6 9 18 19 19 19 17 14 13 11 9 8 7 5 4 5 6 5 4 4 4 4 5 6 7 6 6 5 5 6 5 5 4 3 2 6
6 6 4 0 4 3 4 5 9 14 10 3 5 4 6 17 21 17 18 14 12 12 11 10 8 7 5 5 4 4 4 5 5 5 6 7 9 9 9 8 8 9 10 8 6 6 5 5 5
7 5 4 6 4 4 5 5 15 14 21 27 15 25 20 22 23 18 18 16 10 8 8 8 7 6 4 3 1 1 1 3 4 5 7 8 9 10 11 11 12 12 12 11 10 9 8 9 8
4 5 9 10 4 6 12 8 4 8 17 14 22 22 21 21 21 23 21 17 13 12 11 8 6 6 5 1 2 2 2 2 3 5 8 10 11 12 14 15 14 14 16 15 13 12 11 13 12
4 6 10 15 7 24 13 23 6 10 12 13 13 19 20 18 18 18 18 16 13 11 11 11 8 7 6 4 5 6 7 7 8 11 12 14 15 16 17 18 15 18 19 19 19 17 14 16 15
7 7 4 10 15 14 10 10 17 25 16 19 17 16 14 13 13 13 14 14 13 10 9 7 6 6 7 6 6 9 10 11 10 11 11 12 13 14 14 14 14 15 17 19 17 10 11 17 20
7 4 11 22 27 27 29 22 16 22 21 19 18 15 13 12 13 13 12 13 12 12 12 12 10 10 9 7 7 8 9 10 10 13 13 12 10 11 12 12 12 13 14 14 15 17 16 18 23
9 17 19 20 24 15 22 13 7 14 17 18 16 15 14 14 12 11 11 13 14 15 17 17 17 18 17 13 11 11 14 16 17 14 13 11 11 15 15 16 12 11 13 15 16 17 18 19 20
26 14 16 13 10 13 26 13 9 12 10 13 13 16 12 12 11 11 11 12 14 15 16 16 15 14 18 15 15 17 21 22 20 15 13 13 11 10 14 15 13 11 10 11 13 13 15 17 19
5 4 5 6 10 9 7 8 7 8 6 7 8 14 13 12 11 11 10 11 13 13 14 14 15 15 18 14 14 19 24 27 26 17 13 14 11 11 10 12 15 17 18 17 15 14 13 12 14
1 4 11 4 7 6 3 12 9 1 1 6 8 11 12 10 10 8 8 8 10 11 13 13 14 17 18 13 16 22 27 26 21 12 10 12 13 12 15 17 17 18 19 19 16 14 13 11 11
4 6 7 7 5 11 13 13 3 1 7 7 7 10 10 9 7 6 5 5 4 6 7 9 15 18 15 12 18 23 23 22 17 13 13 14 14 16 17 21 18 16 14 15 15 14 12 14 12
8 16 14 7 10 13 14 7 3 0 9 8 9 8 8 7 5 3 1 4 9 8 9 11 12 12 12 17 23 22 21 22 17 15 16 15 16 17 17 19 16 15 15 14 12 13 13 14 13
13 14 11 11 8 13 7 8 6 6 6 8 6 7 7 5 2 2 5 7 7 4 8 10 11 13 17 22 22 22 23 21 19 15 13 13 14 14 14 16 16 16 16 12 10 10 11 12 9
2 7 8 11 9 11 13 5 3 2 3 5 7 9 8 5 3 1 5 7 6 7 9 9 12 16 21 23 24 25 22 19 19 15 13 11 10 11 13 14 15 16 14 12 11 10 10 10 7
4 10 21 26 11 6 2 3 3 2 2 8 8 11 10 4 2 2 3 3 3 7 7 9 16 20 21 20 20 22 21 20 19 19 19 16 14 14 15 16 15 16 13 12 10 8 7 8 7
2 23 23 14 12 7 1 3 3 2 1 5 7 11 10 5 4 1 4 4 2 7 11 15 18 21 18 17 20 22 22 20 20 20 18 14 13 14 16 14 11 9 7 6 6 6 5 5 5
4 8 6 5 4 4 3 4 4 5 7 7 10 10 8 6 5 4 5 2 3 7 12 19 20 14 16 19 22 20 19 20 19 17 15 14 11 10 10 9 7 3 4 5 6 5 3 3 4
6 6 3 4 5 2 1 3 5 3 7 9 15 12 10 6 6 6 6 4 7 13 20 18 13 15 18 23 17 17 18 20 18 18 16 13 11 10 5 2 1 2 4 5 7 5 3 1 4
4 5 5 3 4 3 4 3 3 1 9 11 13 12 11 7 8 6 3 6 13 18 14 10 12 13 19 23 19 16 15 19 18 16 14 14 9 15 15 11 8 7 8 7 8 7 4 3 5
1 4 2 6 3 4 1 2 2 5 7 9 12 15 11 11 7 4 3 9 13 10 9 8 12 14 17 20 22 17 16 15 17 14 12 12 13 11 11 11 11 7 8 11 10 9 7 7 8
6 3 3 3 4 3 2 3 3 6 7 8 11 13 14 12 7 2 6 10 5 6 7 8 13 14 15 19 20 19 17 16 14 13 13 13 10 9 9 9 8 8 8 9 11 12 10 7 10
5 4 5 5 3 4 3 4 5 8 9 10 18 17 16 12 6 2 7 7 5 4 5 9 12 13 17 17 19 20 17 15 14 13 10 9 8 6 8 9 8 6 6 9 10 12 13 12 10
4 2 3 4 0 2 3 4 4 11 19 21 16 18 16 10 3 3 6 4 6 4 5 10 12 14 15 19 17 16 19 18 15 14 12 9 9 8 8 8 8 6 3 5 4 7 9 11 9
Wind_Direction
344 23 61 67 54 68 61 15 264 355 48 60 83 81 89 47 50 153 145 161 152 135 135 133 131 138 139 136 132 130 136 128 131 141 143 143 141 140 138 136 132 125 119 114 109 104 106 114 125
27 68 110 77 85 59 11 299 312 284 39 109 94 83 58 69 94 120 134 149 143 136 144 140 140 146 144 142 139 144 153 140 145 144 145 146 142 142 140 137 132 126 119 111 102 97 93 100 128
135 129 60 83 99 136 156 234 260 301 338 30 98 46 60 106 113 124 138 142 135 150 144 143 147 145 145 146 144 148 159 164 159 154 154 152 148 148 146 142 136 129 122 112 102 93 90 93 117
137 113 67 71 68 344 189 253 301 319 6 96 111 59 61 106 108 127 130 125 129 136 131 134 137 132 125 108 98 100 73 120 151 157 159 157 155 154 152 148 143 137 128 114 100 96 94 99 112
105 89 65 73 15 232 267 43 17 30 40 47 50 71 72 108 113 119 120 118 117 108 109 105 105 109 110 101 69 63 94 118 136 152 158 161 160 160 160 158 155 151 138 124 117 105 102 106 119
10 83 67 103 270 279 49 55 55 44 84 69 70 73 67 93 109 115 114 111 107 98 92 89 87 90 96 80 79 87 85 101 121 144 159 164 168 169 166 167 167 168 176 186 199 164 106 120 143
111 70 115 123 237 324 59 80 47 29 46 20 95 84 68 115 121 121 118 112 104 97 94 86 85 85 81 81 88 90 94 101 116 133 153 172 181 186 188 186 187 198 204 212 222 234 231 200 165
124 82 83 326 218 65 62 64 56 37 42 305 99 98 81 97 132 132 125 115 108 105 89 80 67 65 66 62 73 100 132 141 144 162 185 202 209 209 206 213 217 222 216 217 226 238 244 232 210
149 83 127 176 227 129 61 101 72 86 76 62 75 105 118 119 128 139 128 120 103 83 73 82 71 58 46 43 63 148 149 165 195 213 219 228 237 239 237 239 242 246 241 234 244 254 246 246 229
97 112 187 201 171 139 115 89 74 106 88 72 79 100 124 120 116 109 104 99 92 82 75 72 83 82 70 33 79 318 308 275 260 267 269 266 267 268 261 256 257 257 255 256 267 266 261 237 231
42 143 173 207 137 122 86 56 60 102 59 77 84 98 106 103 94 96 95 91 81 77 79 80 72 57 53 36 359 340 338 324 305 295 287 280 283 282 276 270 270 266 267 264 267 254 264 244 234
93 62 10 107 118 103 88 88 60 69 80 92 95 91 91 92 90 85 93 93 95 92 80 68 58 45 42 26 19 13 357 348 333 324 303 288 279 280 284 280 273 268 265 261 264 247 241 245 244
62 93 78 91 92 94 93 74 90 83 98 100 107 104 102 102 102 99 96 92 83 71 61 51 33 21 10 348 342 329 333 345 349 342 340 333 311 308 307 301 290 281 272 266 267 265 266 256 251
109 91 82 89 91 110 97 73 97 100 128 128 124 115 116 112 107 97 83 75 60 56 51 45 40 33 16 2 357 352 342 336 327 322 330 331 331 334 333 334 319 303 287 278 273 267 262 259 256
118 92 78 88 92 119 93 74 99 148 134 124 114 114 120 111 109 89 74 65 54 54 53 41 25 17 22 5 351 353 346 337 319 315 306 311 320 343 355 345 334 319 311 304 296 288 276 265 262
66 103 126 230 126 186 22 116 151 144 90 98 121 109 115 113 103 91 74 61 57 49 33 22 6 9 11 11 356 344 347 341 341 315 295 300 303 318 331 328 324 317 313 308 305 299 281 278 275
96 153 113 128 345 133 164 126 193 167 278 123 116 116 114 119 112 87 79 55 44 24 8 359 353 2 358 344 339 349 345 338 325 309 295 287 292 302 306 306 309 308 304 300 294 286 294 296 300
234 101 77 96 3 107 103 117 145 128 124 125 141 130 136 145 124 104 70 36 341 345 350 344 354 353 347 328 333 343 342 334 310 293 290 285 287 293 290 297 300 307 313 307 294 286 286 291 303
97 85 92 114 123 84 117 117 116 243 125 159 184 166 158 148 155 141 348 300 299 322 332 333 329 326 329 336 341 342 345 342 327 303 294 296 288 287 285 282 299 307 310 308 298 279 280 286 286
98 104 94 74 99 108 142 110 131 190 172 186 191 199 168 177 226 268 314 297 324 300 316 311 313 324 333 336 340 338 332 331 325 315 303 295 286 289 292 292 298 314 312 308 303 283 270 269 262
72 134 172 134 102 110 130 77 97 42 173 175 217 214 197 199 235 337 331 325 304 294 302 304 319 327 331 334 336 334 327 323 321 322 324 319 307 298 296 296 305 309 302 303 306 292 279 262 252
71 116 134 138 129 153 235 115 265 211 248 169 197 208 204 197 201 325 334 328 306 282 292 310 318 325 328 335 345 341 342 337 332 326 320 310 295 290 287 298 300 302 294 297 293 291 284 267 257
105 137 148 150 119 114 91 114 193 120 262 177 204 200 198 220 191 3 321 296 248 274 305 316 326 331 339 349 344 341 338 331 322 320 316 313 315 289 280 291 300 308 305 304 298 298 284 271 240
97 132 101 116 117 70 279 139 201 184 200 173 203 200 200 221 211 260 247 273 343 331 331 334 341 353 355 351 343 346 351 351 344 340 337 332 327 318 294 281 292 330 353 352 332 303 294 262 215
73 59 359 8 29 181 253 73 229 201 171 189 187 195 212 235 225 210 222 276 323 334 336 349 7 1 357 354 352 352 2 1 354 349 352 346 346 357 345 329 134 81 5 334 337 348 282 268 196
77 129 146 252 178 201 7 134 235 150 168 171 173 186 183 179 185 196 230 338 338 342 345 2 355 356 356 357 357 355 354 4 6 0 4 9 18 41 33 39 45 71 41 47 54 47 70 102 148
44 52 171 107 68 97 218 125 120 112 102 132 173 182 175 171 176 150 19 344 341 356 0 10 356 356 1 9 9 3 4 356 5 9 13 7 57 49 41 44 40 71 65 64 55 60 67 89 114
95 153 23 16 134 111 179 246 236 182 174 171 181 186 166 163 157 113 354 340 350 1 2 357 357 6 6 8 9 11 9 15 14 16 20 67 52 31 35 47 35 49 63 63 67 68 70 76 103
11 11 51 109 78 142 166 256 210 187 187 185 195 193 178 168 154 26 348 347 351 2 359 2 5 358 8 15 14 18 18 20 22 18 23 17 25 14 22 35 39 49 68 64 59 70 70 80 93
81 76 99 109 159 62 126 269 315 183 183 193 183 187 173 170 152 7 7 14 20 357 348 1 9 6 4 12 14 20 24 28 24 24 25 25 14 13 16 20 17 12 74 82 67 71 79 78 80